Weather History for KHLC - November, 2013

Change the Weather History Date:

Saturday, November 30, 2013

  Actual Average Record
Temperature  
Mean Temperature 44 °F 34 °F  
Max Temperature 66 °F 47 °F 76 °F (1970)
Min Temperature 21 °F 22 °F -2 °F (1952)
Degree Days  
Heating Degree Days 22    
Moisture  
Dew Point 24 °F    
Average Humidity 61    
Maximum Humidity 92    
Minimum Humidity 22    
Precipitation  
Precipitation 0.00 in 0.02 in 0.00 in (2015)
Month to date precipitation 0.69 0.95  
Year to date precipitation 17.56 22.23  
Sea Level Pressure  
Sea Level Pressure 30.15 in    
Wind  
Wind Speed 5 mph (West)    
Max Wind Speed 9 mph    
Max Gust Speed -    
Visibility 10 miles    
Events      
T = Trace of Precipitation, MM = Missing Value Source: NWS Daily Summary

Daily Weather History Graph

Daily Weather History Graph

Search for Another Location

Airport or City:

Trip Planner

Search our weather history database for the weather conditions in past years. The results will help you decide how hot, cold, wet, or windy it might be!

Date:

Astronomy

Nov. 30, 2013 Rise Set
Actual Time 7:39 AM CST 5:16 PM CST
Civil Twilight 7:09 AM CST 5:46 PM CST
Nautical Twilight 6:36 AM CST 6:19 PM CST
Astronomical Twilight 6:04 AM CST 6:51 PM CST
Moon 4:53 AM CST (11/30) 3:41 PM CST (11/30)
Length of Visible Light 10h 36m
Length of Day
9h 37m
Waning Crescent, 7% of the Moon is Illuminated
Nov 30
Waning Crescent
Dec 2
New
Dec 9
First Quarter
Dec 17
Full
Dec 25
Last Quarter

Hourly Weather History & Observations

Time (CST) Temp. Windchill Dew Point Humidity Pressure Visibility Wind Dir Wind Speed Gust Speed Precip Events Conditions
12:53 AM 21.9 °F - 19.9 °F 92% 30.16 in 7.0 mi Calm Calm - N/A   Clear
1:53 AM 23.0 °F 17.0 °F 19.9 °F 88% 30.14 in 9.0 mi WSW 4.6 mph - N/A   Clear
2:53 AM 24.1 °F 19.7 °F 21.9 °F 91% 30.14 in 10.0 mi West 3.5 mph - N/A   Clear
3:53 AM 26.1 °F 17.6 °F 23.0 °F 88% 30.14 in 10.0 mi West 8.1 mph - N/A   Clear
4:53 AM 23.0 °F 15.8 °F 21.0 °F 92% 30.14 in 10.0 mi West 5.8 mph - N/A   Clear
5:53 AM 24.1 °F 16.0 °F 21.9 °F 91% 30.17 in 10.0 mi West 6.9 mph - N/A   Clear
6:53 AM 24.1 °F 17.0 °F 21.0 °F 88% 30.19 in 10.0 mi West 5.8 mph - N/A   Clear
7:53 AM 25.0 °F 19.3 °F 21.9 °F 88% 30.21 in 10.0 mi WSW 4.6 mph - N/A   Clear
8:53 AM 30.9 °F 25.2 °F 26.1 °F 82% 30.21 in 10.0 mi West 5.8 mph - N/A   Clear
9:53 AM 42.1 °F 38.4 °F 32.0 °F 67% 30.20 in 10.0 mi West 5.8 mph - N/A   Clear
10:53 AM 53.1 °F - 30.0 °F 41% 30.18 in 10.0 mi NW 5.8 mph - N/A   Clear
11:53 AM 60.1 °F - 26.1 °F 27% 30.16 in 10.0 mi North 8.1 mph - N/A   Clear
12:53 PM 64.0 °F - 25.0 °F 23% 30.13 in 10.0 mi NNE 4.6 mph - N/A   Clear
1:53 PM 64.0 °F - 24.1 °F 22% 30.12 in 10.0 mi Variable 3.5 mph - N/A   Clear
2:53 PM 64.9 °F - 25.0 °F 22% 30.10 in 10.0 mi NW 8.1 mph - N/A   Clear
3:53 PM 63.0 °F - 25.0 °F 24% 30.09 in 10.0 mi WNW 8.1 mph - N/A   Clear
4:53 PM 57.9 °F - 26.1 °F 30% 30.10 in 10.0 mi West 5.8 mph - N/A   Clear
5:53 PM 43.0 °F 40.3 °F 25.0 °F 49% 30.13 in 10.0 mi WNW 4.6 mph - N/A   Clear
6:53 PM 43.0 °F 38.8 °F 25.0 °F 49% 30.14 in 10.0 mi SW 6.9 mph - N/A   Clear
7:53 PM 45.0 °F 40.1 °F 26.1 °F 48% 30.15 in 10.0 mi North 9.2 mph - N/A   Clear
8:53 PM 35.1 °F 32.2 °F 24.1 °F 64% 30.16 in 10.0 mi WNW 3.5 mph - N/A   Clear
9:53 PM 36.0 °F 33.3 °F 25.0 °F 64% 30.15 in 10.0 mi WSW 3.5 mph - N/A   Clear
10:53 PM 34.0 °F 28.0 °F 25.0 °F 70% 30.14 in 10.0 mi West 6.9 mph - N/A   Clear
11:53 PM 36.0 °F 31.1 °F 24.1 °F 62% 30.12 in 10.0 mi West 5.8 mph - N/A   Clear